IRIDIUM 33 DEB

Satellite information

Favourite Embed

Satellite Type and Status

DEBRISIN ORBIT

Key statistics

Satellite IRIDIUM 33 DEB at a glance.

Uptime

10098

Days in orbit

Revolutions

≈ 14.3

Per day

Orbit

LEO

Low Earth Orbit

Inclination

86.3

Latest

Satellite identification and parameters

Extended collection of information and parameters for IRIDIUM 33 DEB.

Object identification

Identified? True

Debris? True

Object name: IRIDIUM 33 DEB

International designator: 1997-051GN

Object number (NORAD): 34497

Object ID (CCSDS): 34497

Country: UNITED STATES OF AMERICA (US)

Current information (Y/N): Y

RCS size: SMALL

Orbital parameters

Period: 100.942 minutes

Inclination: 86.2789 deg

SMA: 7181.37 km

Apoapsis: 860.692 km

Periapsis: 745.778 km

RAAN: 146.177 deg

Eccentricy: 0.0080008

Argument of periapsis: 327.2849 deg

Mean anomaly: 61.5952 deg

Mean motion: 14.26565769 rev/day

Mean motion (dot): 0.00001936 rev/day2

B* drag term: 0.00076904 1/REarth

Two-line elements (TLE)

Creation date: May 8, 2025, 3:01 a.m.

Reference frame: TEME

Reference center: EARTH

Epoch: May 7, 2025, 12:22 a.m. UTC

TLE line 0: 0 IRIDIUM 33 DEB

TLE line 1: 1 34497U 97051GN 25127.01575139 .00001936 00000-0 76904-3 0 9995

TLE line 2: 2 34497 86.2789 146.1770 0080008 327.2849 61.5952 14.26565769837508

Live tracking on map

Real-time ground track for satellite IRIDIUM 33 DEB.

In-orbit conjunctions

A list of the most updated potential collisions computed for object IRIDIUM 33 DEB.

Target Orbit TCA Probability of collision Miss distance Type
FENGYUN 1C DEB SSO 2025-04-04 00:18:08 0.0001398389 166.0 (m) DEBRIS
CZ-6A DEB LEO 2025-02-26 22:17:54 0.000114899 664.0 (m) DEBRIS
TRANSIT 11 DEB SSO 2024-07-28 05:39:17 0.0001011721 247.0 (m) DEBRIS

Associated space launch

Iridium provides global mobile telecommunications services using a constellation of 66 low earth orbit satellites in a 86.4° inclined orbit. Although 77 satellites were originally envisioned for the system and spawned the name based on the 77th element in the periodic table, the system has been scaled back. Motorola's Satellite Communications Group designed and manufactured the Iridium satellites with Lockheed Martin providing the LM-700A spacecraft buses.

IRIDIUM 33 DEB was lifted into orbit during the mission ‘Proton-K/17S40 | Iridium 27 to 33’, on board a Proton-K/17S40 space rocket.

The launch took place on Sept. 14, 1997, 1:36 a.m. from 81/23 (81L).

For more information about the launch, click the button.

Launch to space Proton-K/17S40 | Iridium 27 to 33
Proton-K/17S40 | Iridium 27 to 33

Agency: N/A

Status: Launch Successful

Launch date: Sept. 14, 1997, 1:36 a.m. UTC

Rocket: Proton-K/17S40

Launch pad: 81/23 (81L)

Location: Baikonur Cosmodrome, Republic of Kazakhstan

...

Latest news about this satellite

There are no fresh news available about this satellite. Check back as we update our databases every day.


Newsletter sign-up

Weekly statistics, charts and insights to help you stay on top of the space industry.